Hourly Weather Bolshoe Skuratovo

Today, 2 August, Monday

Time Temperature Precipitation Wind Pressure Humidity
00:00 +22°C° 0 mm 3 mps 736 mmHg 58%
01:00 +21°C° 0 mm 3 mps 736 mmHg 59%
02:00 +21°C° 0 mm 3 mps 736 mmHg 61%
03:00 +20°C° 0.1 mm 3 mps 736 mmHg 65%
04:00 +20°C° 0.1 mm 3 mps 736 mmHg 68%
05:00 +20°C° 0.1 mm 2 mps 736 mmHg 72%
06:00 +22°C° 0 mm 3 mps 736 mmHg 66%
07:00 +25°C° 0 mm 3 mps 736 mmHg 60%
08:00 +27°C° 0 mm 4 mps 736 mmHg 54%
09:00 +29°C° 0 mm 5 mps 735 mmHg 48%
10:00 +32°C° 0 mm 5 mps 735 mmHg 42%
11:00 +34°C° 0 mm 6 mps 735 mmHg 36%
12:00 +34°C° 0 mm 6 mps 735 mmHg 36%
13:00 +34°C° 0 mm 6 mps 734 mmHg 36%
14:00 +34°C° 0 mm 7 mps 734 mmHg 37%
15:00 +33°C° 0 mm 6 mps 733 mmHg 38%
16:00 +33°C° 0 mm 5 mps 733 mmHg 40%
17:00 +33°C° 0 mm 4 mps 732 mmHg 42%
18:00 +28°C° 0.6 mm 5 mps 733 mmHg 57%
19:00 +25°C° 0.6 mm 5 mps 733 mmHg 72%
20:00 +20°C° 0.6 mm 5 mps 733 mmHg 87%
21:00 +20°C° 1.6 mm 5 mps 733 mmHg 89%
22:00 +20°C° 1.6 mm 4 mps 733 mmHg 91%
23:00 +19°C° 1.6 mm 3 mps 733 mmHg 92%

Tomorrow, 3 August, Tuesday

Time Temperature Precipitation Wind Pressure Humidity
00:00 +19°C° 0 mm 3 mps 733 mmHg 93%
01:00 +19°C° 0 mm 3 mps 734 mmHg 95%
02:00 +19°C° 0 mm 3 mps 734 mmHg 96%
03:00 +18°C° 0 mm 3 mps 734 mmHg 96%
04:00 +18°C° 0 mm 3 mps 734 mmHg 95%
05:00 +18°C° 0 mm 3 mps 735 mmHg 95%
06:00 +18°C° 0 mm 3 mps 735 mmHg 90%
07:00 +19°C° 0 mm 3 mps 736 mmHg 84%
08:00 +20°C° 0 mm 3 mps 736 mmHg 78%
09:00 +21°C° 0 mm 3 mps 736 mmHg 72%
10:00 +22°C° 0 mm 3 mps 736 mmHg 65%
11:00 +23°C° 0 mm 4 mps 737 mmHg 59%
12:00 +23°C° 0 mm 4 mps 737 mmHg 55%
13:00 +25°C° 0 mm 4 mps 737 mmHg 50%
14:00 +26°C° 0 mm 4 mps 737 mmHg 46%
15:00 +25°C° 0 mm 4 mps 737 mmHg 50%
16:00 +23°C° 0 mm 4 mps 737 mmHg 54%
17:00 +22°C° 0 mm 5 mps 737 mmHg 58%
18:00 +21°C° 0 mm 4 mps 737 mmHg 63%
19:00 +20°C° 0 mm 3 mps 738 mmHg 68%
20:00 +19°C° 0 mm 2 mps 738 mmHg 73%
21:00 +18°C° 0 mm 2 mps 738 mmHg 74%
22:00 +17°C° 0 mm 2 mps 738 mmHg 75%
23:00 +16°C° 0 mm 2 mps 739 mmHg 75%

Day after tomorrow, 4 August, Wednesday

Time Temperature Precipitation Wind Pressure Humidity
00:00 +16°C° 0 mm 2 mps 739 mmHg 74%
01:00 +15°C° 0 mm 2 mps 739 mmHg 72%
02:00 +15°C° 0 mm 1 mps 739 mmHg 70%
03:00 +16°C° 0 mm 2 mps 739 mmHg 67%
04:00 +16°C° 0 mm 2 mps 740 mmHg 65%
05:00 +17°C° 0 mm 2 mps 740 mmHg 62%
06:00 +18°C° 0 mm 2 mps 740 mmHg 60%
07:00 +19°C° 0 mm 3 mps 740 mmHg 59%
08:00 +20°C° 0 mm 3 mps 740 mmHg 57%
09:00 +21°C° 0 mm 3 mps 741 mmHg 52%
10:00 +24°C° 0 mm 3 mps 741 mmHg 47%
11:00 +25°C° 0 mm 4 mps 741 mmHg 41%
12:00 +25°C° 0 mm 3 mps 741 mmHg 43%
13:00 +24°C° 0 mm 3 mps 741 mmHg 44%
14:00 +24°C° 0 mm 3 mps 741 mmHg 46%
15:00 +24°C° 0 mm 2 mps 741 mmHg 47%
16:00 +24°C° 0 mm 2 mps 741 mmHg 49%
17:00 +24°C° 0 mm 2 mps 741 mmHg 50%
18:00 +21°C° 0 mm 2 mps 741 mmHg 55%
19:00 +20°C° 0 mm 1 mps 741 mmHg 60%
20:00 +19°C° 0 mm 1 mps 741 mmHg 65%
21:00 +18°C° 0 mm 1 mps 741 mmHg 66%
22:00 +16°C° 0 mm 0 mps 741 mmHg 68%
23:00 +15°C° 0 mm 0 mps 741 mmHg 69%

5 August, Thursday

Time Temperature Precipitation Wind Pressure Humidity
00:00 +15°C° 0 mm 0 mps 741 mmHg 70%
01:00 +15°C° 0 mm 0 mps 742 mmHg 71%
02:00 +14°C° 0 mm 0 mps 742 mmHg 71%
03:00 +16°C° 0 mm 1 mps 742 mmHg 71%
04:00 +16°C° 0 mm 1 mps 742 mmHg 70%
05:00 +16°C° 0 mm 1 mps 742 mmHg 69%
06:00 +19°C° 0 mm 1 mps 742 mmHg 65%
07:00 +20°C° 0 mm 1 mps 742 mmHg 60%
08:00 +22°C° 0 mm 1 mps 742 mmHg 56%
09:00 +23°C° 0 mm 1 mps 742 mmHg 53%
10:00 +24°C° 0 mm 1 mps 742 mmHg 50%
11:00 +25°C° 0 mm 1 mps 742 mmHg 46%
12:00 +25°C° 0 mm 1 mps 742 mmHg 45%
13:00 +26°C° 0 mm 1 mps 742 mmHg 43%
14:00 +26°C° 0 mm 1 mps 742 mmHg 42%
15:00 +25°C° 0 mm 2 mps 742 mmHg 46%
16:00 +24°C° 0 mm 2 mps 741 mmHg 50%
17:00 +21°C° 0 mm 3 mps 741 mmHg 54%
18:00 +20°C° 0.2 mm 3 mps 741 mmHg 62%
19:00 +19°C° 0.2 mm 3 mps 741 mmHg 69%
20:00 +17°C° 0.2 mm 3 mps 741 mmHg 77%
21:00 +17°C° 0.1 mm 3 mps 741 mmHg 79%
22:00 +17°C° 0.1 mm 3 mps 741 mmHg 80%
23:00 +17°C° 0.1 mm 4 mps 741 mmHg 82%

6 August, Friday

Time Temperature Precipitation Wind Pressure Humidity
00:00 +17°C° 0 mm 4 mps 741 mmHg 82%
01:00 +17°C° 0 mm 4 mps 741 mmHg 83%
02:00 +17°C° 0 mm 4 mps 741 mmHg 83%
03:00 +16°C° 0 mm 5 mps 741 mmHg 81%
04:00 +15°C° 0 mm 5 mps 741 mmHg 79%
05:00 +15°C° 0 mm 5 mps 740 mmHg 77%
06:00 +17°C° 0 mm 5 mps 740 mmHg 69%
07:00 +20°C° 0 mm 6 mps 740 mmHg 61%
08:00 +22°C° 0 mm 7 mps 740 mmHg 53%
09:00 +24°C° 0 mm 6 mps 740 mmHg 48%
10:00 +26°C° 0 mm 6 mps 740 mmHg 43%
11:00 +28°C° 0 mm 5 mps 740 mmHg 38%
12:00 +29°C° 0 mm 5 mps 740 mmHg 36%
13:00 +29°C° 0 mm 5 mps 740 mmHg 35%
14:00 +30°C° 0 mm 5 mps 739 mmHg 33%
15:00 +29°C° 0 mm 4 mps 739 mmHg 36%
16:00 +29°C° 0 mm 4 mps 739 mmHg 39%
17:00 +28°C° 0 mm 4 mps 739 mmHg 42%
18:00 +27°C° 0 mm 4 mps 738 mmHg 44%
19:00 +25°C° 0 mm 5 mps 738 mmHg 45%
20:00 +23°C° 0 mm 5 mps 738 mmHg 47%
21:00 +22°C° 0 mm 5 mps 738 mmHg 47%
22:00 +22°C° 0 mm 6 mps 738 mmHg 47%
23:00 +22°C° 0 mm 6 mps 738 mmHg 47%

7 August, Saturday

Time Temperature Precipitation Wind Pressure Humidity
00:00 +22°C° 0 mm 5 mps 738 mmHg 47%
01:00 +21°C° 0 mm 5 mps 738 mmHg 47%
02:00 +21°C° 0 mm 5 mps 738 mmHg 47%
03:00 +20°C° 0 mm 4 mps 738 mmHg 51%
04:00 +20°C° 0 mm 4 mps 739 mmHg 54%
05:00 +19°C° 0 mm 3 mps 739 mmHg 57%
06:00 +21°C° 0 mm 4 mps 739 mmHg 52%
07:00 +23°C° 0 mm 4 mps 739 mmHg 47%
08:00 +26°C° 0 mm 5 mps 739 mmHg 42%
09:00 +27°C° 0 mm 5 mps 739 mmHg 38%
10:00 +29°C° 0 mm 5 mps 739 mmHg 34%
11:00 +32°C° 0 mm 6 mps 739 mmHg 29%
12:00 +30°C° 0 mm 6 mps 739 mmHg 31%
13:00 +30°C° 0 mm 6 mps 739 mmHg 33%
14:00 +30°C° 0 mm 6 mps 739 mmHg 35%
15:00 +28°C° 0 mm 5 mps 739 mmHg 44%
16:00 +25°C° 0 mm 4 mps 740 mmHg 53%
17:00 +22°C° 0 mm 3 mps 740 mmHg 62%
18:00 +22°C° 0.1 mm 3 mps 740 mmHg 62%
19:00 +22°C° 0.1 mm 3 mps 740 mmHg 62%
20:00 +22°C° 0.1 mm 3 mps 740 mmHg 62%
21:00 +22°C° 0 mm 3 mps 740 mmHg 62%
22:00 +22°C° 0 mm 3 mps 741 mmHg 63%
23:00 +21°C° 0 mm 3 mps 741 mmHg 63%
Show more

We Need Your Consent

Meteoprog and our Service Providers may store and access personal data such as cookies, device identifiers or other similar technologies on your device and process such data to personalise content and ads, as well as provide social media features and to analyse the traffic.

  • Store and/or access information on your device

    Cookies, device identifiers or other information can be stored or accessed on your device for the purposes indicated above.

  • Personalised ads and content, ad and content measurement, audience insights, and products development

    Ads and content can be personalised based on a profile. More data can be added to better personalise ads and content. Ad and content performance can be measured. Insights about the audience who saw the ads and content can be derived. Such data can be used to develop or improve user’s experience, systems and software.

By clicking ‘I Agree’ you will allow the use of indicated cookies, device identifiers, web beacons or other similar technologies. Your settings can be changed in the browser on your device.

For certain purposes, legitimate interests may be relied on, rather than consent. You can read more about this in our Privacy and Cookie Policy.